Regional Weather Roundup
Issued by NWS

Home | Current Version | Previous Version | Graphics & Text | Print | Product List | Glossary On
Versions: 1 2 3 4 5 6 7 8 9 10 11 12 13 14 15 16 17 18 19 20 21 22 23 24 25 26 27 28 29 30 31 32 33 34 35 36 37 38 39 40 41 42 43 44 45 46 47 48 49 50
208
ASUS43 KMKX 221033
RWRWI

WISCONSIN REGIONAL WEATHER ROUNDUP
NATIONAL WEATHER SERVICE MILWAUKEE/SULLIVAN WI
600 AM CDT FRI MAY 22 2015

NOTE: "FAIR" INDICATES FEW OR NO CLOUDS BELOW 12,000 FEET WITH NO
SIGNIFICANT WEATHER AND/OR OBSTRUCTIONS TO VISIBILITY.

WIZ001-002-006>008-014>016-023>028-221200-
NORTHWEST WISCONSIN

CITY           SKY/WX    TMP DP  RH WIND       PRES   REMARKS
SUPERIOR ARPT  CLEAR     34  32  94 CALM      30.16R
ASHLAND        CLEAR     35  32  88 W5        30.16R WCI  31
HAYWARD        CLEAR     32  28  85 N5        30.16R WCI  27
SIREN          CLEAR     34  32  94 CALM      30.16R
CUMBERLAND     CLEAR     41  34  75 CALM      30.15R
RICE LAKE      CLEAR     40  37  91 CALM      30.16R
CHETEK         CLEAR     38  37  94 CALM      30.15R
LADYSMITH      CLEAR     37  35  94 NW3       30.16R
EAU CLAIRE     CLEAR     39  37  92 NE5       30.14R
MENOMONIE      CLEAR     44  37  77 NW3       30.14R
NEW RICHMOND   CLEAR     42  35  76 CALM      30.15R
OSCEOLA        CLEAR     37  37 100 CALM      30.18R
$$

WIZ003>005-009-010-017-018-221200-
NORTH CENTRAL WISCONSIN

CITY           SKY/WX    TMP DP  RH WIND       PRES   REMARKS
MANITOWISH WTR CLEAR     31  31 100 CALM      30.14R
ARBOR VITAE    CLEAR     34  30  85 CALM      30.14R
WOODRUFF       CLEAR     34  30  85 CALM      30.14R
RHINELANDER    CLEAR     34  28  79 CALM      30.15R
EAGLE RIVER    CLEAR     30  27  89 CALM      30.14R
LAND O LAKES   CLEAR     28  28  98 CALM      30.15S
PHILLIPS       CLEAR     32  32  99 CALM      30.14R
TOMAHAWK       CLEAR     29  28  96 CALM      30.15R
MEDFORD        CLEAR     35  32  88 CALM      30.14R
MERRILL        CLEAR     32  32 100 CALM      30.16R
$$

WIZ029-030-035-036-043>047-221200-
CENTRAL WISCONSIN

CITY           SKY/WX    TMP DP  RH WIND       PRES   REMARKS
WAUSAU         CLEAR     37  35  92 E5        30.15R WCI  33
MOSINEE        CLEAR     37  34  87 CALM      30.16R
MARSHFIELD     CLEAR     41  34  76 E5        30.15R
STEVENS POINT  CLEAR     32  31  96 CALM      30.16R
WAUPACA        CLEAR     38  34  88 CALM      30.16R
WAUTOMA        NOT AVBL
WISC RAPIDS    CLEAR     39  34  82 CALM      30.17R
CAMP DOUGLAS   CLEAR     32  32 100 E2        30.13R
$$

WIZ011>013-019>022-031-037>040-048>050-221200-
NORTHEAST WISCONSIN

CITY           SKY/WX    TMP DP  RH WIND       PRES   REMARKS
ANTIGO         CLEAR     34  30  86 CALM      30.15R
SHAWANO        CLEAR     39  36  90 CALM      30.16R
OCONTO         CLEAR     31  31 100 CALM      30.15R
STURGEON BAY   CLEAR     39  28  65 N6        30.17R WCI  35
GREEN BAY      CLEAR     38  34  85 CALM      30.16R
MANITOWOC      NOT AVBL
APPLETON       CLEAR     37  30  75 N3        30.16R
CLINTONVILLE   CLEAR     34  34 100 CALM      30.16R FOG
OSHKOSH        CLEAR     45  29  53 E3        30.15R
$$

WIZ032>034-041-042-053>061-221200-
SOUTHWEST WISCONSIN

CITY           SKY/WX    TMP DP  RH WIND       PRES   REMARKS
LA CROSSE      CLEAR     45  40  82 SE3       30.13R
SPARTA         CLEAR     32  32  99 CALM      30.14R
VIROQUA        CLEAR     50  33  51 E3        30.12R
BOSCOBEL       FOG       37  35  92 CALM      30.14R VSB 1
PRAIRIE DU CHI CLEAR     42  39  86 E3        30.12R
PLATTEVILLE    CLEAR     46  38  74 NE5       30.12R
$$

WIZ056-057-062-063-064-067-068-221200-
SOUTH CENTRAL WISCONSIN

CITY           SKY/WX    TMP DP  RH WIND       PRES   REMARKS
REEDSBURG      CLEAR     40  38  93 CALM      30.13R
BARABOO/DELLS  CLEAR     39  36  89 CALM      30.13R
LONE ROCK      NOT AVBL
MINERAL POINT  CLEAR     50  37  62 E5        30.12R
MADISON        CLEAR     41  35  79 CALM      30.13R
MIDDLETON      CLEAR     41  35  79 CALM      30.13R
WATERTOWN      CLEAR     40  33  74 CALM      30.12R
MONROE         CLEAR     46  36  66 E7        30.11R
JANESVILLE     CLEAR     45  32  61 CALM      30.11R
$$

WIZ051-052-058>065-066-070>072-221200-
SOUTHEAST WISCONSIN

CITY           SKY/WX    TMP DP  RH WIND       PRES   REMARKS
MILWAUKEE      CLEAR     43  32  65 N7        30.13R
WAUKESHA       CLEAR     37  32  81 CALM      30.13R
MILWAUKEE/TIMM CLEAR     41  32  70 CALM      30.14R
RACINE         CLEAR     45  35  68 N5        30.14R
BURLINGTON     CLEAR     40  32  72 CALM      30.12R
KENOSHA        CLEAR     42  34  73 N3        30.12R
FOND DU LAC    CLEAR     37  30  75 CALM      30.15R
SHEBOYGAN      CLEAR     38  32  79 NW5       30.15R WCI  34
WEST BEND      CLEAR     36  34  93 CALM      30.14R
JUNEAU         CLEAR     42  29  60 N3        30.14R
$$

LSZ147-162-221200-
LAKE SUPERIOR

STATION/POSITION TIME  TEMP    WIND        PRES    WAVE
                       AIR SEA DIR/SP/G            HT/PER
                 (UTC) (F)     (DEG/KT/KT) (MB)    (FT/S)
W MID LAKE BUOY  0850   37 36   40/  8/  8   N/A     0
DEVILS ISLAND    0900   40      40/  6/  7   N/A
SAXON HARBOR     0940   36     200/  4/  7   N/A
$$

LMZ867-665-643>646-221200-
LAKE MICHIGAN

STATION/POSITION TIME  TEMP    WIND        PRES    WAVE
                       AIR SEA DIR/SP/G            HT/PER
                 (UTC) (F)     (DEG/KT/KT) (MB)    (FT/S)
CHAMBERS ISLAND  0900   44     300/  5/  7   N/A
N MID LAKE BUOY  0850   39 36  290/  6/  6   N/A     1/ 3
NORTHPORT PIER   0800   46     330/  9/ 10   N/A
SISTER BAY       0917   44      20/  6/  8   N/A
KEWAUNEE LAKESHO 0900          300/  3/  5   N/A
SHEBOYGAN LAKESH 0900          330/  4/  5   N/A
PORT WASHINGTON  0900   48     350/  2/  4   N/A
ATWATER BUOY     0900   46 44  350/  8/ 10   N/A
MILWAUKEE LAKESH 0900   49     340/  4/  5   N/A
S MID LAKE BUOY  0850   42 38   10/  8/ 10   N/A     0
KENOSHA   LAKESH 0900   49      20/  9/ 11   N/A
$$

TC  - TEMPERATURE IN CELSIUS
VSB - VISIBILITY IN STATUTE MILES
WCI - WIND CHILL INDEX
HX  - HEAT INDEX




USA.gov is the U.S. government's official web portal to all federal, state and local government web resources and services.